[[{"header":{"parameterUnit":"m.s-1","parameterCategory":1,"la1":30.2991,"la2":30.254,"lo1":-89.0895,"lo2":-89.0444,"dy":0.0017,"dx":0.0017,"nx":28,"ny":28,"refTime":"2025-01-13T09:00:00:Z","depth":0,"parameterNumber":2,"parameterNumberName":"U-component_of_WINDS"},"data":[0,0,0,0,0,0,0,0,0,0,0,0,0,0,0,0,0,0,0,0,0,0,0,0,0,0,0,0,0,0,0,0,0,0,0,0,0,0,0,0,0,0,0,0,0,0,0,0,0,0,0,0,0,0,0,0,0,0,-0.2342,-0.2342,0,-0.2408,-0.2409,-0.2409,-0.2395,-0.2394,-0.2393,-0.2392,-0.2464,-0.2467,-0.247,0,0,0,0,0,0,0,0,0,0,0,0,0,-0.2208,-0.221,-0.2342,-0.2343,-0.2343,-0.2408,-0.2409,-0.241,-0.2396,-0.2394,-0.2393,-0.2391,-0.2463,-0.2466,-0.247,0,0,0,0,0,0,0,0,0,0,0,0,0,-0.2269,-0.2211,-0.2342,-0.2344,-0.2345,-0.2408,-0.2409,-0.241,-0.2396,-0.2394,-0.2392,-0.239,-0.2461,-0.2466,-0.247,-0.2536,0,0,-0.2484,-0.2486,0,0,0,0,0,0,0,0,-0.2266,-0.2274,-0.2343,-0.2344,-0.2345,-0.2391,-0.2388,-0.2452,-0.2396,-0.2377,-0.2392,-0.239,-0.2441,-0.2447,-0.2464,-0.2539,-0.2542,-0.2485,-0.2488,-0.249,-0.2491,0,0,0,0,0,0,0,-0.2261,-0.2271,-0.2368,-0.2344,-0.2345,-0.2343,-0.235,-0.24,-0.2419,-0.2378,-0.2377,-0.2385,-0.2442,-0.246,-0.2466,-0.2543,-0.2485,-0.2489,-0.2492,-0.2493,-0.2677,-0.2679,0,0,0,0,0,0,-0.2256,-0.2268,-0.2366,-0.237,-0.23,-0.2347,-0.2355,-0.2378,-0.2418,-0.2422,-0.2387,-0.2384,-0.2453,-0.246,-0.2468,-0.2549,-0.2489,-0.2494,-0.2496,-0.2675,-0.2678,-0.268,0,0,0,0,0,0,-0.2253,-0.2264,-0.2363,-0.2319,-0.2331,-0.2351,-0.2378,-0.2381,-0.2399,-0.2424,-0.2428,-0.2401,-0.2452,-0.2462,-0.2519,-0.2551,-0.2496,-0.25,-0.2672,-0.2676,-0.2679,-0.271,0,0,0,0,0,0,-0.2249,-0.2263,-0.2288,-0.2319,-0.2333,-0.2412,-0.238,-0.2383,-0.2406,-0.2404,-0.2439,-0.2443,-0.2451,-0.2512,-0.2524,-0.2557,-0.2504,-0.267,-0.2674,-0.2678,-0.2706,-0.2714,-0.2721,0,0,0,0,0,-0.2244,-0.2294,-0.2289,-0.2301,-0.2364,-0.2414,-0.2422,-0.2429,-0.2409,-0.2434,-0.2451,-0.2442,-0.2545,-0.2518,-0.2531,-0.2566,-0.2668,-0.2673,-0.2677,-0.2703,-0.2713,-0.272,0,0,0,0,0,0,-0.2268,-0.2299,-0.2293,-0.2355,-0.2382,-0.2411,-0.2444,-0.2438,-0.2472,-0.2469,-0.2476,-0.2484,-0.2543,-0.256,-0.2529,-0.2632,-0.2604,-0.2611,-0.2619,-0.2628,-0.2635,-0.2631,-0.2507,0,0,0,0,0,-0.228,-0.2316,-0.2342,-0.2394,-0.2408,-0.2423,-0.2445,-0.2448,-0.2477,-0.2488,-0.2509,-0.2539,-0.2578,-0.2603,-0.2641,-0.2708,-0.2717,-0.2738,-0.2745,-0.2751,-0.2758,-0.2796,-0.2807,-0.2696,-0.2695,-0.2695,0,0,-0.2306,-0.2327,-0.235,-0.2399,-0.2421,-0.246,-0.2433,-0.2476,-0.2506,-0.2495,-0.2551,-0.2567,-0.2601,-0.2664,-0.2692,-0.2679,-0.279,-0.2757,-0.2761,-0.2765,-0.2802,-0.2813,-0.2822,-0.2699,-0.2698,-0.2698,0,0,-0.2374,-0.2393,-0.2439,-0.246,-0.2492,-0.2502,-0.2513,-0.2544,-0.2554,-0.261,-0.2603,-0.2639,-0.2706,-0.273,-0.2751,-0.2828,-0.2823,-0.284,-0.2878,-0.2916,-0.2924,-0.2932,-0.2962,-0.2972,-0.2847,-0.2847,-0.2847,0,-0.2403,-0.2461,-0.2464,-0.2507,-0.253,-0.252,-0.2568,-0.2589,-0.2633,-0.2649,-0.2633,-0.2717,-0.2739,-0.2808,-0.2827,-0.2843,-0.2858,-0.2837,-0.2923,-0.2931,-0.2938,-0.2966,-0.2977,-0.2849,-0.2849,-0.2848,-0.2848,0,-0.2496,-0.2536,-0.257,-0.261,-0.2637,-0.2682,-0.2693,-0.272,-0.2719,-0.2731,-0.2789,-0.2814,-0.2857,-0.2873,-0.2874,-0.2944,-0.2935,-0.292,-0.2893,-0.2951,-0.2978,-0.2988,-0.2852,-0.2851,-0.2851,-0.285,0,0,-0.2583,-0.2623,-0.2636,-0.2655,-0.2689,-0.2721,-0.2767,-0.2807,-0.2831,-0.286,-0.29,-0.2956,-0.2944,-0.2968,-0.2971,-0.3003,-0.3065,-0.2985,-0.2986,-0.3002,-0.3146,-0.3158,-0.317,-0.306,-0.3062,-0.3064,-0.3144,0,-0.2655,-0.2735,-0.2738,-0.2811,-0.285,-0.2841,-0.2881,-0.2907,-0.2919,-0.2954,-0.2968,-0.3009,-0.2988,-0.3002,-0.3034,-0.3051,-0.3095,-0.3045,-0.31,-0.3102,-0.3094,-0.3184,-0.3197,-0.3271,-0.3154,-0.3156,-0.3157,0,-0.2752,-0.2783,-0.286,-0.2889,-0.2905,-0.2941,-0.2979,-0.3012,-0.3042,-0.3049,-0.3075,-0.3074,-0.3122,-0.3091,-0.3159,-0.3125,-0.3147,-0.3159,-0.3162,-0.317,-0.3135,-0.3197,-0.3295,-0.3307,-0.3173,-0.3172,-0.3171,0,-0.281,-0.2872,-0.2926,-0.2942,-0.2977,-0.3003,-0.3019,-0.3046,-0.3071,-0.3104,-0.3121,-0.3159,-0.3181,-0.3212,-0.3222,-0.3198,-0.329,-0.3259,-0.3299,-0.3299,-0.3321,-0.332,-0.3427,-0.3331,-0.3331,-0.3331,-0.3331,0,-0.2893,-0.2941,-0.2953,-0.2986,-0.304,-0.3044,-0.3097,-0.3112,-0.3136,-0.3174,-0.3168,-0.3204,-0.3213,-0.325,-0.3258,-0.3314,-0.3324,-0.3332,-0.3334,-0.3334,-0.3333,-0.3351,-0.3347,-0.3334,-0.3333,-0.3333,-0.3332,0,-0.2969,-0.2978,-0.3037,-0.3065,-0.3073,-0.3111,-0.3136,-0.3169,-0.318,-0.3227,-0.3239,-0.3256,-0.33,-0.3312,-0.3365,-0.337,-0.3437,-0.3433,-0.3427,-0.3428,-0.3468,-0.3465,-0.3592,-0.361,-0.35,-0.3501,-0.3502,0,-0.3022,-0.3058,-0.309,-0.3114,-0.3131,-0.3169,-0.3194,-0.3199,-0.3226,-0.3262,-0.3292,-0.3334,-0.3369,-0.344,-0.3459,-0.3499,-0.3498,-0.354,-0.3504,-0.3504,-0.3502,-0.3501,-0.3505,-0.3547,-0.3549,-0.3549,-0.355,0,-0.3117,-0.312,-0.3155,-0.3192,-0.3221,-0.3251,-0.3279,-0.33,-0.3309,-0.3339,-0.3383,-0.341,-0.3464,-0.3507,-0.3548,-0.3566,-0.3561,-0.3561,-0.3573,-0.3575,-0.3571,-0.3576,-0.3448,-0.3558,-0.3558,-0.3557,-0.3557,-0.3556,-0.3185,-0.3217,-0.3245,-0.3284,-0.3306,-0.3333,-0.3365,-0.338,-0.3416,-0.346,-0.346,-0.3509,-0.3539,-0.3593,-0.3613,-0.3653,-0.3641,-0.3657,-0.3662,-0.3667,-0.3671,-0.3562,-0.366,-0.366,-0.366,-0.3659,-0.3659,0,-0.3282,-0.3298,-0.3334,-0.3374,-0.3406,-0.3395,-0.3426,-0.3454,-0.3497,-0.3524,-0.3558,-0.361,-0.3652,-0.3673,-0.3715,-0.3743,-0.3741,-0.3754,-0.3753,-0.3758,-0.3679,-0.3665,-0.3754,-0.3754,-0.3754,-0.3754,-0.3754,-0.3754,-0.3336,-0.3391,-0.3397,-0.3463,-0.348,-0.3526,-0.3545,-0.3571,-0.3593,-0.365,-0.3685,-0.3697,-0.3723,-0.3767,-0.3806,-0.3811,-0.3828,-0.3843,-0.3847,-0.3773,-0.3763,-0.3754,-0.3742,-0.3846,-0.3846,-0.3923,-0.3924,-0.3925]},{"header":{"parameterUnit":"m.s-1","parameterCategory":1,"la1":30.2991,"la2":30.254,"lo1":-89.0895,"lo2":-89.0444,"dy":0.0017,"dx":0.0017,"nx":28,"ny":28,"refTime":"2025-01-13T09:00:00:Z","depth":0,"parameterNumber":3,"parameterNumberName":"V-component_of_WINDS"},"data":[0,0,0,0,0,0,0,0,0,0,0,0,0,0,0,0,0,0,0,0,0,0,0,0,0,0,0,0,0,0,0,0,0,0,0,0,0,0,0,0,0,0,0,0,0,0,0,0,0,0,0,0,0,0,0,0,0,0,-3.9552,-3.9552,0,-3.9596,-3.9596,-3.9597,-3.952,-3.9517,-3.9515,-3.9512,-3.9557,-3.956,-3.9564,0,0,0,0,0,0,0,0,0,0,0,0,0,-3.9402,-3.9405,-3.9552,-3.9552,-3.9553,-3.9596,-3.9596,-3.9597,-3.952,-3.9517,-3.9514,-3.9511,-3.9556,-3.956,-3.9564,0,0,0,0,0,0,0,0,0,0,0,0,0,-3.9458,-3.9406,-3.9552,-3.952,-3.9517,-3.9596,-3.9596,-3.9597,-3.9521,-3.9517,-3.9513,-3.951,-3.9554,-3.9559,-3.9565,-3.9676,0,0,-3.9581,-3.9584,0,0,0,0,0,0,0,0,-3.9455,-3.9464,-3.9524,-3.9522,-3.952,-3.9548,-3.956,-3.9623,-3.9522,-3.952,-3.9512,-3.9508,-3.9557,-3.9562,-3.9579,-3.9678,-3.968,-3.9582,-3.9585,-3.9587,-3.9589,0,0,0,0,0,0,0,-3.9451,-3.9462,-3.9569,-3.9525,-3.9522,-3.9503,-3.9507,-3.9571,-3.956,-3.952,-3.9514,-3.952,-3.9555,-3.9574,-3.9579,-3.9681,-3.9582,-3.9586,-3.959,-3.9592,-3.9874,-3.9878,0,0,0,0,0,0,-3.9451,-3.9459,-3.9568,-3.957,-3.9477,-3.9509,-3.9513,-3.9543,-3.9559,-3.9557,-3.9524,-3.9517,-3.9566,-3.9573,-3.9581,-3.9713,-3.9587,-3.9592,-3.9596,-3.987,-3.9875,-3.988,0,0,0,0,0,0,-3.9449,-3.9462,-3.9566,-3.9513,-3.9525,-3.9516,-3.955,-3.9546,-3.9564,-3.9562,-3.9559,-3.9545,-3.9564,-3.9573,-3.9653,-3.9713,-3.9595,-3.96,-3.9865,-3.9872,-3.9878,-3.9978,0,0,0,0,0,0,-3.9445,-3.9461,-3.9503,-3.9515,-3.9528,-3.9638,-3.9553,-3.955,-3.9574,-3.9565,-3.9581,-3.958,-3.9561,-3.9646,-3.9659,-3.9719,-3.9604,-3.986,-3.9868,-3.9876,-3.9969,-3.9987,-4.0002,0,0,0,0,0,-3.9439,-3.9529,-3.9506,-3.9519,-3.9581,-3.9642,-3.9649,-3.9626,-3.9579,-3.9622,-3.962,-3.9579,-3.9704,-3.9654,-3.9668,-3.9731,-3.9856,-3.9866,-3.9875,-3.9962,-3.9984,-4.0002,0,0,0,0,0,0,-3.9525,-3.953,-3.9504,-3.9601,-3.9622,-3.9629,-3.9681,-3.965,-3.9684,-3.9675,-3.9644,-3.9648,-3.9735,-3.9741,-3.9685,-3.984,-3.9772,-3.9785,-3.9834,-3.9854,-3.987,-3.9868,-3.9608,0,0,0,0,0,-3.9555,-3.9605,-3.9606,-3.9691,-3.9703,-3.9691,-3.9716,-3.9697,-3.9717,-3.9725,-3.9729,-3.9751,-3.9795,-3.9824,-3.9864,-3.9969,-3.9972,-4.0019,-4.0036,-4.0049,-4.0061,-4.0118,-4.014,-3.9911,-3.9911,-3.9911,0,0,-3.9618,-3.9627,-3.966,-3.9709,-3.9722,-3.9775,-3.9699,-3.9756,-3.9795,-3.9734,-3.9811,-3.9814,-3.9836,-3.9929,-3.9971,-3.9937,-4.0125,-4.0061,-4.0072,-4.0077,-4.013,-4.0152,-4.0171,-3.9918,-3.9917,-3.9916,0,0,-3.9759,-3.9771,-3.9843,-3.9859,-3.9881,-3.9872,-3.989,-3.9902,-3.9903,-3.9979,-3.9935,-3.998,-4.0056,-4.0073,-4.0092,-4.0241,-4.0206,-4.0255,-4.0342,-4.0398,-4.0416,-4.0432,-4.0486,-4.0506,-4.0267,-4.0267,-4.0267,0,-3.9835,-3.9912,-3.9885,-3.9947,-3.997,-3.9917,-3.9991,-4.0007,-4.0041,-4.0059,-4.002,-4.0115,-4.0126,-4.0223,-4.026,-4.0276,-4.0296,-4.0254,-4.0415,-4.0431,-4.0445,-4.0497,-4.0518,-4.0273,-4.0272,-4.0272,-4.0271,0,-4.0004,-4.0058,-4.0114,-4.0149,-4.0178,-4.0246,-4.0229,-4.0262,-4.024,-4.0236,-4.0315,-4.0326,-4.0368,-4.0389,-4.0368,-4.0484,-4.0463,-4.042,-4.0352,-4.0474,-4.0522,-4.0541,-4.0281,-4.0279,-4.0277,-4.0276,0,0,-4.0201,-4.0221,-4.0242,-4.0258,-4.0279,-4.032,-4.0385,-4.0427,-4.0456,-4.0481,-4.0536,-4.0602,-4.0563,-4.0585,-4.0565,-4.0614,-4.0733,-4.0565,-4.0565,-4.0598,-4.0864,-4.0897,-4.092,-4.0709,-4.0713,-4.0715,-4.0862,0,-4.0343,-4.0456,-4.0434,-4.0545,-4.0595,-4.0546,-4.0603,-4.0622,-4.0619,-4.0662,-4.0658,-4.0706,-4.0651,-4.0664,-4.071,-4.0709,-4.0786,-4.0698,-4.076,-4.0763,-4.0758,-4.0945,-4.098,-4.1118,-4.0881,-4.0884,-4.0886,0,-4.0524,-4.0557,-4.0673,-4.0687,-4.0707,-4.0758,-4.0796,-4.0836,-4.0857,-4.0852,-4.0876,-4.0847,-4.0913,-4.0842,-4.0932,-4.0873,-4.0897,-4.09,-4.0905,-4.0911,-4.0833,-4.0958,-4.1161,-4.1183,-4.0915,-4.0913,-4.0911,0,-4.0658,-4.0731,-4.0811,-4.0825,-4.0843,-4.0881,-4.089,-4.0906,-4.0933,-4.0965,-4.0983,-4.1022,-4.1044,-4.1075,-4.1057,-4.1007,-4.1151,-4.1079,-4.1149,-4.115,-4.1183,-4.1181,-4.1395,-4.1196,-4.1196,-4.1195,-4.1195,0,-4.082,-4.0893,-4.0872,-4.0921,-4.1001,-4.0975,-4.1056,-4.1059,-4.1074,-4.1123,-4.1082,-4.1129,-4.1102,-4.1147,-4.1134,-4.1211,-4.1221,-4.1219,-4.1215,-4.1224,-4.1224,-4.124,-4.1231,-4.1201,-4.1199,-4.1198,-4.1197,0,-4.0985,-4.0973,-4.1056,-4.1066,-4.107,-4.113,-4.1138,-4.1184,-4.1178,-4.1241,-4.1254,-4.1245,-4.1296,-4.1281,-4.1336,-4.1327,-4.1425,-4.1408,-4.1419,-4.1415,-4.1487,-4.1481,-4.172,-4.1751,-4.153,-4.1532,-4.1534,0,-4.109,-4.1145,-4.1161,-4.1191,-4.1204,-4.1252,-4.128,-4.1256,-4.1286,-4.1315,-4.1357,-4.1404,-4.1441,-4.1524,-4.1523,-4.1564,-4.1549,-4.1629,-4.1555,-4.1563,-4.1552,-4.155,-4.1556,-4.1645,-4.1648,-4.165,-4.1651,0,-4.1278,-4.1269,-4.131,-4.1351,-4.1385,-4.1415,-4.1441,-4.1468,-4.1446,-4.1482,-4.1534,-4.1562,-4.1618,-4.1666,-4.1704,-4.1713,-4.168,-4.1675,-4.1693,-4.1704,-4.1709,-4.1709,-4.1461,-4.167,-4.1668,-4.1666,-4.1665,-4.1665,-4.1417,-4.1464,-4.1484,-4.1531,-4.1549,-4.1574,-4.1618,-4.1619,-4.1661,-4.1706,-4.1689,-4.1749,-4.1768,-4.1816,-4.183,-4.1876,-4.1846,-4.1872,-4.188,-4.1887,-4.1897,-4.17,-4.1883,-4.1882,-4.1882,-4.1881,-4.1881,0,-4.1604,-4.1614,-4.1658,-4.1697,-4.1735,-4.1699,-4.1727,-4.1761,-4.1814,-4.1835,-4.1873,-4.1932,-4.1979,-4.1981,-4.2024,-4.2061,-4.2047,-4.2073,-4.2071,-4.2074,-4.1921,-4.1902,-4.2084,-4.2084,-4.2084,-4.2084,-4.2084,-4.2084,-4.1706,-4.1785,-4.1779,-4.1867,-4.1876,-4.1935,-4.1954,-4.1978,-4.1995,-4.2064,-4.2102,-4.2103,-4.2118,-4.2162,-4.2203,-4.2202,-4.2221,-4.2254,-4.2248,-4.2105,-4.2085,-4.2066,-4.2047,-4.2257,-4.2258,-4.2397,-4.2398,-4.2399]}]]